This is the latest recevied weather packets stored in our database for station/object KB5DPX. If no packets are shown the sender has not sent any weather packets the latest 1 day(s).
| Time | Temp. | Humidity | Pressure | Rain* | Wind** | Luminosity | Snow |
|---|---|---|---|---|---|---|---|
| 1778025761 | 6.67° C | 68% | 1008.3 hPa | 0 mm | 3.13 m/s, 306° | 37 W/m² | - |
| 1778025456 | 7.22° C | 65% | 1008.3 hPa | 0 mm | 3.13 m/s, 302° | 46 W/m² | - |
| 1778025144 | 7.22° C | 62% | 1008.2 hPa | 0 mm | 3.13 m/s, 304° | 40 W/m² | - |
| 1778024856 | 7.22° C | 61% | 1008.1 hPa | 0 mm | 2.68 m/s, 317° | 44 W/m² | - |
| 1778024560 | 7.22° C | 62% | 1008.1 hPa | 0 mm | 3.13 m/s, 309° | 51 W/m² | - |
| 1778024265 | 7.22° C | 62% | 1008.1 hPa | 0 mm | 4.02 m/s, 312° | 65 W/m² | - |
| 1778023966 | 7.22° C | 62% | 1008.1 hPa | 0 mm | 4.47 m/s, 304° | 95 W/m² | - |
| 1778023663 | 7.22° C | 62% | 1008 hPa | 0 mm | 4.02 m/s, 309° | 107 W/m² | - |
| 1778023367 | 7.78° C | 60% | 1008.1 hPa | 0 mm | 4.92 m/s, 289° | 114 W/m² | - |
| 1778023052 | 7.78° C | 61% | 1008 hPa | 0 mm | 4.47 m/s, 308° | 102 W/m² | - |
| 1778022765 | 8.89° C | 58% | 1008 hPa | 0 mm | 4.92 m/s, 301° | 88 W/m² | - |
| 1778022450 | 10.56° C | 48% | 1007.9 hPa | 0 mm | 4.92 m/s, 269° | 84 W/m² | - |
| 1778022168 | 10.56° C | 46% | 1007.7 hPa | 0 mm | 3.58 m/s, 276° | 139 W/m² | - |
| 1778021844 | 10.56° C | 45% | 1007.7 hPa | 0 mm | 4.92 m/s, 260° | 214 W/m² | - |
| 1778021555 | 10.56° C | 45% | 1007.7 hPa | 0 mm | 4.47 m/s, 232° | 267 W/m² | - |
| 1778021261 | 10.56° C | 45% | 1007.9 hPa | 0 mm | 4.92 m/s, 236° | 313 W/m² | - |
| 1778020966 | 10.56° C | 44% | 1007.8 hPa | 0 mm | 4.02 m/s, 258° | 339 W/m² | - |
| 1778020650 | 10.56° C | 45% | 1007.7 hPa | 0 mm | 4.92 m/s, 253° | 350 W/m² | - |
| 1778020366 | 10.56° C | 44% | 1007.9 hPa | 0 mm | 4.47 m/s, 254° | 383 W/m² | - |
| 1778020044 | 10.56° C | 43% | 1007.7 hPa | 0 mm | 3.58 m/s, 226° | 378 W/m² | - |
| 1778019756 | 10.56° C | 45% | 1007.7 hPa | 0 mm | 3.13 m/s, 255° | 385 W/m² | - |
| 1778019457 | 10.56° C | 44% | 1007.6 hPa | 0 mm | 5.81 m/s, 277° | 401 W/m² | - |
| 1778019162 | 10.56° C | 45% | 1007.6 hPa | 0 mm | 5.36 m/s, 282° | 431 W/m² | - |
| 1778018862 | 10.56° C | 45% | 1007.7 hPa | 0 mm | 5.81 m/s, 253° | 445 W/m² | - |
| 1778018546 | 10.56° C | 44% | 1007.6 hPa | 0 mm | 5.81 m/s, 240° | 455 W/m² | - |
* Rain latest hour (hover to see other rain measurements)
** Current wind speed in m/s (hover to see current wind gust speed)